Location: Unspecified
(0.0000°N, 0.0000°E)
Time: 20:03:29
(UTC+00:00)

ISS - Pass Details

Date: 10 May 2026
Orbit: 414 x 424 km, 51.6° (Epoch: 10 May)

Event Time Altitude Azimuth Distance (km) Brightness Sun altitude
Rises 05:28:14 0° 317° (NW) 2,353 -0.2 -6.7°
Reaches altitude 10° 05:30:21 10° 312° (NW) 1,494 -1.2 -6.2°
Maximum altitude 05:33:38 52° 235° (SW) 527 -3.6 -5.4°
Drops below altitude 10° 05:36:56 10° 157° (SSE) 1,504 -0.9 -4.6°
Sets 05:39:05 0° 152° (SSE) 2,372 0.2 -4.1°
